GSAT0205 (GALILEO 9) (40889 NORAD) Tracking and Keplerian Element Data

This shows tracking and keplerian element data for the satellite.

Feedback or suggestion? Click here.




ElementValue
Catalog40889
NameGSAT0205 (GALILEO 9)
Epoch Orbit5654
Epoch Day285.08209068
Epoch Year2024
RAAN238.5683
Inclination55.1701
Eccentricity0.0004117
Argument of Perigee17.1646
Mean Anonmoly342.8316
Mean Motion1.70472961
Decay Rate2.1E-07
L11 40889U 15045A 24285.08209068 .00000021 00000+0 00000+0 0 9999
L22 40889 55.1701 238.5683 0004117 17.1646 342.8316 1.70472961 56547



Live tracking and technical data element details for GSAT0205 (GALILEO 9) (NORAD 40889). GSAT0205 (GALILEO 9) can be tracked NOW for your location showing map with azimuth and elevation plus other details from your city location.







IsCatalogInMostPopularTable: catalog: 40889, numindb: 958
Update: records affected: 1



GetName: 40889 GSAT0205 (GALILEO 9)

Hit Count: updated at: Mon, 13 Jan 2025 19:36:25 GMT